Total_Precipitation_Accumulation
0.00 0.01 0.06 0.12 0.16 0.23 0.22 0.12 0.10 0.05 0.03 0.02 0.02 0.01 0.01 0.01 0.01 0.03 0.00 0.00 0.00 0.00 0.00 0.01 0.01 0.00 0.00 0.01 0.01 0.00 0.00 0.00 0.01 0.01 0.01 0.01 0.01 0.01 0.01 0.01 0.01 0.01 0.01 0.01 0.01 0.01 0.01 0.01 0.01
0.00 0.01 0.07 0.12 0.19 0.42 0.23 0.08 0.05 0.03 0.02 0.03 0.02 0.01 0.01 0.00 0.00 0.00 0.00 0.00 0.00 0.00 0.00 0.00 0.01 0.00 0.00 0.01 0.01 0.01 0.01 0.01 0.01 0.01 0.01 0.01 0.01 0.01 0.01 0.01 0.01 0.01 0.01 0.01 0.01 0.01 0.01 0.01 0.01
0.00 0.01 0.06 0.10 0.22 0.43 0.12 0.04 0.03 0.03 0.02 0.04 0.03 0.01 0.00 0.00 0.00 0.00 0.00 0.00 0.00 0.00 0.00 0.00 0.01 0.00 0.00 0.01 0.01 0.01 0.01 0.01 0.01 0.01 0.01 0.02 0.02 0.02 0.02 0.02 0.01 0.01 0.02 0.01 0.01 0.01 0.01 0.01 0.01
0.00 0.00 0.02 0.06 0.16 0.26 0.12 0.05 0.04 0.04 0.03 0.02 0.02 0.01 0.00 0.00 0.00 0.00 0.00 0.00 0.00 0.00 0.00 0.01 0.01 0.00 0.01 0.01 0.01 0.01 0.01 0.02 0.02 0.01 0.02 0.02 0.04 0.04 0.03 0.02 0.02 0.02 0.02 0.02 0.02 0.01 0.01 0.01 0.01
0.00 0.00 0.01 0.03 0.08 0.12 0.10 0.08 0.07 0.05 0.02 0.02 0.02 0.01 0.00 0.00 0.00 0.00 0.00 0.00 0.00 0.00 0.00 0.01 0.01 0.01 0.00 0.01 0.01 0.01 0.02 0.02 0.02 0.02 0.02 0.02 0.03 0.03 0.03 0.02 0.02 0.03 0.02 0.02 0.03 0.03 0.02 0.01 0.01
0.00 0.00 0.01 0.02 0.03 0.05 0.08 0.09 0.08 0.05 0.03 0.02 0.02 0.02 0.01 0.00 0.00 0.00 0.00 0.00 0.00 0.00 0.00 0.01 0.01 0.01 0.01 0.01 0.01 0.01 0.02 0.02 0.02 0.02 0.02 0.02 0.02 0.02 0.02 0.02 0.02 0.03 0.04 0.03 0.03 0.03 0.02 0.02 0.02
0.00 0.00 0.00 0.01 0.02 0.05 0.04 0.05 0.07 0.04 0.03 0.03 0.03 0.03 0.04 0.01 0.01 0.01 0.01 0.00 0.00 0.00 0.01 0.02 0.02 0.02 0.02 0.01 0.01 0.02 0.03 0.03 0.03 0.03 0.03 0.02 0.02 0.03 0.03 0.03 0.04 0.05 0.06 0.07 0.04 0.03 0.03 0.03 0.03
0.00 0.00 0.00 0.00 0.01 0.03 0.02 0.03 0.05 0.06 0.03 0.02 0.03 0.06 0.08 0.05 0.02 0.01 0.02 0.02 0.01 0.02 0.02 0.02 0.03 0.03 0.02 0.02 0.03 0.04 0.04 0.04 0.04 0.04 0.04 0.03 0.02 0.03 0.04 0.05 0.09 0.11 0.14 0.14 0.11 0.07 0.07 0.09 0.09
0.00 0.00 0.00 0.00 0.00 0.01 0.01 0.02 0.04 0.05 0.05 0.04 0.05 0.08 0.10 0.04 0.02 0.02 0.04 0.05 0.06 0.05 0.04 0.04 0.04 0.04 0.04 0.04 0.04 0.06 0.06 0.06 0.05 0.06 0.06 0.06 0.06 0.08 0.18 0.17 0.25 0.24 0.29 0.27 0.25 0.24 0.25 0.28 0.20
0.00 0.00 0.00 0.00 0.00 0.00 0.00 0.01 0.02 0.04 0.08 0.09 0.12 0.16 0.14 0.09 0.10 0.11 0.11 0.16 0.20 0.11 0.07 0.07 0.06 0.07 0.07 0.06 0.06 0.07 0.09 0.16 0.13 0.19 0.27 0.29 0.33 0.28 0.16 0.27 0.50 0.59 0.63 0.62 0.63 0.74 0.73 0.60 0.43
0.00 0.00 0.00 0.00 0.00 0.00 0.00 0.01 0.01 0.02 0.08 0.15 0.28 0.37 0.28 0.18 0.12 0.17 0.25 0.33 0.29 0.19 0.15 0.13 0.12 0.14 0.13 0.11 0.11 0.14 0.21 0.41 0.35 0.31 0.44 0.57 0.51 0.33 0.20 0.24 0.49 0.76 0.83 0.75 0.94 1.21 0.94 0.87 0.91
0.00 0.00 0.00 0.00 0.00 0.00 0.00 0.00 0.01 0.02 0.04 0.13 0.30 0.37 0.35 0.33 0.22 0.19 0.31 0.32 0.30 0.37 0.40 0.36 0.33 0.31 0.34 0.33 0.29 0.25 0.30 0.40 0.40 0.42 0.40 0.61 0.63 0.47 0.40 0.42 0.51 0.75 0.93 1.15 1.21 1.38 1.36 1.34 1.23
0.00 0.00 0.00 0.00 0.00 0.00 0.00 0.00 0.01 0.03 0.03 0.05 0.16 0.23 0.27 0.37 0.50 0.49 0.47 0.49 0.53 0.50 0.53 0.65 0.72 0.73 0.74 0.67 0.58 0.44 0.43 0.42 0.42 0.51 0.52 0.67 0.82 0.79 0.86 0.84 0.78 0.77 1.09 1.43 1.61 1.47 1.67 1.74 1.50
0.00 0.00 0.00 0.00 0.00 0.00 0.00 0.01 0.02 0.05 0.05 0.05 0.09 0.18 0.27 0.33 0.35 0.43 0.58 0.70 0.72 0.69 0.81 1.08 1.22 1.23 1.24 1.25 1.15 0.95 0.88 0.85 0.82 0.86 0.96 1.08 1.17 1.30 1.36 1.28 1.18 1.06 1.15 1.41 1.61 1.62 1.81 1.70 1.61
0.00 0.00 0.00 0.00 0.01 0.00 0.01 0.02 0.04 0.06 0.07 0.08 0.08 0.12 0.21 0.31 0.37 0.41 0.55 0.65 0.78 0.92 1.23 1.55 1.76 1.86 1.91 1.90 1.77 1.57 1.42 1.42 1.50 1.53 1.62 1.62 1.65 1.79 1.74 1.56 1.36 1.31 1.41 1.50 1.51 1.53 1.62 1.45 1.36
0.00 0.00 0.00 0.00 0.01 0.01 0.01 0.06 0.08 0.10 0.12 0.12 0.11 0.13 0.17 0.23 0.30 0.38 0.53 0.70 0.99 1.33 1.73 2.10 2.35 2.54 2.67 2.63 2.41 2.05 1.86 1.84 1.90 1.94 1.90 1.93 1.93 1.91 1.90 1.61 1.31 1.41 1.51 1.49 1.47 1.37 1.43 1.38 1.39
0.00 0.00 0.01 0.02 0.01 0.02 0.03 0.07 0.12 0.15 0.16 0.13 0.12 0.13 0.15 0.20 0.30 0.43 0.63 0.87 1.17 1.58 2.15 2.69 3.12 3.45 3.60 3.27 2.66 2.27 2.19 2.16 2.16 2.13 2.00 1.91 1.82 1.77 1.88 1.59 1.41 1.46 1.42 1.34 1.29 1.41 1.57 1.49 1.46
0.00 0.00 0.02 0.05 0.04 0.05 0.06 0.10 0.15 0.21 0.24 0.23 0.20 0.19 0.21 0.26 0.33 0.50 0.68 0.94 1.26 1.62 2.28 3.01 3.66 3.89 3.75 3.16 2.62 2.48 2.37 2.18 2.02 1.80 1.61 1.49 1.50 1.50 1.58 1.39 1.31 1.42 1.39 1.24 1.29 1.40 1.49 1.31 1.36
0.01 0.02 0.06 0.10 0.06 0.07 0.13 0.17 0.24 0.32 0.35 0.36 0.36 0.36 0.33 0.38 0.51 0.73 0.89 1.12 1.49 1.85 2.41 3.05 3.54 3.60 3.36 2.99 2.60 2.35 2.02 1.80 1.58 1.34 1.16 1.06 1.05 1.11 1.26 1.13 1.20 1.28 1.20 1.11 1.13 1.19 1.21 1.04 1.29
0.03 0.04 0.08 0.09 0.07 0.06 0.13 0.25 0.37 0.35 0.35 0.39 0.38 0.36 0.39 0.50 0.66 0.83 1.08 1.29 1.49 1.85 2.25 2.53 2.43 2.17 2.03 1.97 1.87 1.62 1.59 1.59 1.52 1.43 1.23 1.04 1.05 1.03 0.98 0.97 0.98 1.03 1.06 0.96 0.92 1.03 1.01 0.85 1.10
0.03 0.05 0.07 0.11 0.16 0.12 0.12 0.29 0.50 0.52 0.45 0.38 0.37 0.35 0.35 0.44 0.61 0.84 1.13 1.29 1.31 1.50 1.65 1.58 1.31 1.04 1.01 1.05 1.00 1.14 1.32 1.45 1.49 1.52 1.42 1.26 1.21 1.18 1.12 1.03 0.94 0.91 0.94 0.92 0.88 0.96 0.95 0.83 0.87
0.06 0.04 0.05 0.06 0.10 0.19 0.26 0.45 0.69 0.76 0.73 0.52 0.44 0.45 0.40 0.41 0.48 0.69 0.88 0.91 0.97 1.02 0.89 0.76 0.67 0.57 0.54 0.54 0.58 0.66 0.86 1.16 1.36 1.54 1.59 1.60 1.52 1.37 1.24 1.11 0.94 0.81 0.79 0.82 0.75 0.80 0.89 0.89 0.79
0.04 0.03 0.03 0.05 0.07 0.12 0.25 0.41 0.73 0.90 1.06 0.67 0.46 0.43 0.38 0.41 0.52 0.54 0.52 0.52 0.54 0.53 0.45 0.39 0.41 0.43 0.44 0.46 0.54 0.56 0.54 0.61 0.63 0.71 0.84 1.00 1.13 1.10 0.96 0.89 0.83 0.73 0.67 0.67 0.70 0.80 0.87 0.89 0.80
0.04 0.06 0.08 0.12 0.14 0.22 0.33 0.39 0.66 0.80 0.85 0.54 0.42 0.41 0.31 0.31 0.34 0.35 0.34 0.33 0.31 0.28 0.26 0.32 0.39 0.48 0.50 0.52 0.54 0.52 0.52 0.58 0.58 0.59 0.62 0.62 0.66 0.68 0.66 0.64 0.66 0.65 0.64 0.63 0.63 0.69 0.77 0.85 0.89
0.05 0.07 0.18 0.43 0.59 0.64 0.45 0.46 0.64 0.59 0.57 0.57 0.45 0.36 0.28 0.22 0.18 0.18 0.20 0.22 0.18 0.16 0.14 0.17 0.24 0.33 0.35 0.38 0.43 0.46 0.53 0.56 0.52 0.48 0.45 0.44 0.44 0.47 0.51 0.54 0.59 0.59 0.63 0.69 0.76 0.76 0.76 0.83 0.93
0.05 0.05 0.13 0.25 0.33 0.46 0.39 0.63 0.71 0.53 0.51 0.44 0.32 0.25 0.21 0.12 0.09 0.08 0.08 0.09 0.09 0.09 0.09 0.09 0.10 0.14 0.20 0.26 0.34 0.48 0.66 0.72 0.68 0.66 0.53 0.49 0.48 0.47 0.50 0.57 0.63 0.62 0.64 0.65 0.74 0.78 0.85 0.91 0.94
0.06 0.05 0.06 0.08 0.10 0.22 0.38 0.61 0.58 0.42 0.44 0.36 0.23 0.15 0.11 0.08 0.07 0.04 0.04 0.04 0.04 0.04 0.05 0.06 0.06 0.10 0.17 0.24 0.31 0.37 0.42 0.49 0.50 0.52 0.51 0.48 0.54 0.50 0.55 0.63 0.71 0.74 0.74 0.76 0.80 0.81 0.91 1.08 1.15
0.06 0.05 0.04 0.05 0.08 0.11 0.24 0.53 0.59 0.48 0.47 0.37 0.24 0.14 0.08 0.06 0.04 0.02 0.02 0.02 0.02 0.03 0.05 0.08 0.07 0.14 0.27 0.40 0.46 0.36 0.29 0.27 0.33 0.42 0.49 0.51 0.54 0.55 0.59 0.63 0.66 0.71 0.73 0.76 0.80 0.86 0.96 1.10 1.17
0.07 0.06 0.06 0.06 0.06 0.10 0.16 0.33 0.31 0.30 0.28 0.25 0.18 0.12 0.10 0.07 0.03 0.01 0.01 0.01 0.02 0.03 0.07 0.18 0.24 0.31 0.43 0.58 0.66 0.55 0.38 0.31 0.31 0.35 0.34 0.36 0.44 0.54 0.61 0.58 0.52 0.49 0.55 0.66 0.80 0.88 0.96 1.05 1.08
0.08 0.07 0.07 0.08 0.07 0.07 0.10 0.22 0.14 0.13 0.12 0.10 0.07 0.06 0.04 0.02 0.01 0.01 0.01 0.01 0.01 0.03 0.14 0.38 0.63 0.89 0.95 1.03 1.11 0.96 0.58 0.36 0.29 0.24 0.23 0.29 0.41 0.52 0.57 0.54 0.49 0.47 0.54 0.66 0.80 0.96 1.16 1.28 1.24